Weather History for KBML - February, 2004

Change the Weather History Date:

Tuesday, February 10, 2004

  Actual Average Record
Temperature  
Mean Temperature 28 °F -  
Max Temperature 35 °F 26 °F 50 °F (2001)
Min Temperature 21 °F 0 °F -18 °F (2013)
Degree Days  
Heating Degree Days 37    
Moisture  
Dew Point 22 °F    
Average Humidity 69    
Maximum Humidity 88    
Minimum Humidity 42    
Precipitation  
Precipitation 0.00 in - - ()
Sea Level Pressure  
Sea Level Pressure 29.84 in    
Wind  
Wind Speed 6 mph (West)    
Max Wind Speed 13 mph    
Max Gust Speed 20 mph    
Visibility 8 miles    
Events Snow    
Averages and records for this station are not official NWS values.
T = Trace of Precipitation, MM = Missing Value Source: NWS Daily Summary

Daily Weather History Graph

Daily Weather History Graph

Search for Another Location

Airport or City:

Trip Planner

Search our weather history database for the weather conditions in past years. The results will help you decide how hot, cold, wet, or windy it might be!

Date:

Astronomy

Feb. 10, 2004 Rise Set
Actual Time 6:52 AM EST 5:05 PM EST
Civil Twilight 6:22 AM EST 5:35 PM EST
Nautical Twilight 5:48 AM EST 6:10 PM EST
Astronomical Twilight 5:14 AM EST 6:44 PM EST
Moon 10:05 PM EST (2/10) 9:05 AM EST (2/10)
Length of Visible Light 11h 13m
Length of Day
10h 12m
Waning Gibbous, 80% of the Moon is Illuminated
Feb 10
Waning Gibbous
Feb 13
Last Quarter
Feb 20
New
Feb 27
First Quarter
Mar 6
Full

Hourly Weather History & Observations

Time (EST) Temp. Windchill Dew Point Humidity Pressure Visibility Wind Dir Wind Speed Gust Speed Precip Events Conditions
12:52 AM 33.1 °F 30.0 °F 24.1 °F 70% 29.95 in 10.0 mi WNW 3.5 mph - N/A   Overcast
1:52 AM 33.1 °F 28.7 °F 23.0 °F 66% 29.94 in 10.0 mi WNW 4.6 mph - N/A   Overcast
2:52 AM 34.0 °F 27.2 °F 21.9 °F 61% 29.92 in 10.0 mi West 8.1 mph - N/A   Overcast
3:52 AM 33.1 °F - 21.9 °F 64% 29.91 in 10.0 mi Calm Calm - N/A   Overcast
4:52 AM 33.1 °F 28.7 °F 21.9 °F 64% 29.90 in 10.0 mi Variable 4.6 mph - N/A   Overcast
5:52 AM 33.1 °F 27.7 °F 23.0 °F 66% 29.89 in 10.0 mi Variable 5.8 mph - N/A   Overcast
6:52 AM 33.1 °F 26.1 °F 23.0 °F 66% 29.88 in 10.0 mi SW 8.1 mph - N/A   Overcast
7:52 AM 33.1 °F 26.9 °F 23.0 °F 66% 29.89 in 10.0 mi Variable 6.9 mph - N/A   Overcast
8:28 AM 32.0 °F 24.2 °F 24.8 °F 75% 29.86 in 1.8 mi SW 9.2 mph - 0.00 in Snow Light Snow
8:44 AM 30.2 °F 22.6 °F 26.6 °F 86% 29.86 in 1.8 mi SW 8.1 mph - 0.00 in Snow Light Snow
8:52 AM 30.9 °F 24.3 °F 26.1 °F 82% 29.90 in 4.0 mi SSW 6.9 mph - 0.00 in Snow Light Snow
9:06 AM 32.0 °F 26.4 °F 24.8 °F 75% 29.85 in 6.0 mi Variable 5.8 mph - 0.00 in Snow Light Snow
9:18 AM 33.8 °F 28.6 °F 24.8 °F 70% 29.85 in 10.0 mi Variable 5.8 mph - 0.00 in   Overcast
9:40 AM 33.8 °F 26.4 °F 23.0 °F 65% 29.85 in 10.0 mi WNW 9.2 mph - 0.00 in   Overcast
9:52 AM 34.0 °F 26.6 °F 21.9 °F 61% 29.88 in 10.0 mi West 9.2 mph - 0.00 in   Mostly Cloudy
10:52 AM 35.1 °F 26.4 °F 19.0 °F 52% 29.86 in 10.0 mi West 12.7 mph 19.6 mph N/A   Overcast
11:52 AM 33.1 °F 26.1 °F 21.9 °F 64% 29.84 in 10.0 mi West 8.1 mph - 0.00 in   Overcast
12:28 PM 32.0 °F 23.6 °F 23.0 °F 69% 29.80 in 2.5 mi West 10.4 mph 16.1 mph 0.00 in Snow Light Snow
12:36 PM 32.0 °F 23.6 °F 24.8 °F 75% 29.80 in 1.2 mi West 10.4 mph - 0.00 in Snow Light Snow
12:44 PM 30.2 °F 21.3 °F 24.8 °F 80% 29.80 in 0.8 mi West 10.4 mph 17.3 mph 0.00 in Snow Light Snow
12:52 PM 30.9 °F 22.2 °F 26.1 °F 82% 29.84 in 0.5 mi West 10.4 mph 16.1 mph 0.00 in Snow Snow
1:01 PM 32.0 °F 25.6 °F 26.6 °F 80% 29.80 in 1.0 mi Variable 6.9 mph - 0.00 in Snow Light Snow
1:04 PM 32.0 °F 25.6 °F 26.6 °F 80% 29.80 in 2.5 mi West 6.9 mph - 0.00 in Snow Light Snow
1:11 PM 33.8 °F 25.8 °F 24.8 °F 70% 29.79 in 6.0 mi WNW 10.4 mph - 0.00 in Snow Light Snow
1:18 PM 33.8 °F 24.8 °F 23.0 °F 65% 29.79 in 9.0 mi West 12.7 mph 18.4 mph 0.00 in   Partly Cloudy
1:52 PM 33.1 °F 26.9 °F 18.0 °F 54% 29.83 in 10.0 mi West 6.9 mph 16.1 mph 0.00 in   Mostly Cloudy
2:52 PM 34.0 °F 27.2 °F 12.9 °F 42% 29.81 in 10.0 mi West 8.1 mph 19.6 mph N/A   Overcast
3:52 PM 33.1 °F 30.0 °F 14.0 °F 46% 29.81 in 10.0 mi Variable 3.5 mph - N/A   Overcast
4:52 PM 30.9 °F 25.2 °F 18.0 °F 59% 29.81 in 10.0 mi SSW 5.8 mph - N/A   Overcast
5:52 PM 30.9 °F 27.5 °F 18.0 °F 59% 29.81 in 10.0 mi West 3.5 mph - N/A   Overcast
6:52 PM 23.0 °F - 15.1 °F 72% 29.82 in 10.0 mi Calm Calm - N/A   Mostly Cloudy
7:52 PM 28.0 °F - 21.0 °F 75% 29.81 in 8.0 mi Calm Calm - 0.00 in Snow Light Snow
8:52 PM 28.0 °F - 19.9 °F 72% 29.80 in 10.0 mi Calm Calm - 0.00 in   Partly Cloudy
9:52 PM 21.9 °F - 16.0 °F 78% 29.81 in 10.0 mi Calm Calm - N/A   Overcast
10:52 PM 21.0 °F - 18.0 °F 88% 29.79 in 9.0 mi Calm Calm - N/A   Overcast
11:52 PM 21.0 °F - 18.0 °F 88% 29.78 in 8.0 mi Calm Calm - N/A   Overcast